EW0997 Weather Reports


time (UTC)temp
C
wind
direction
speed
KPH
gust
KPH
rain 1hr
cm
rain 24hr
cm
rain mn
cm
humidity
%
barometer
mb
20260506091705 14 12 8.0 22.5 0.00 0.00 0.00 72 1008.6
20260506090705 15 71 11.3 20.9 0.00 0.00 0.00 71 1008.7
20260506090205 15 76 14.5 24.1 0.00 0.00 0.00 71 1008.7
20260506085706 15 54 16.1 27.4 0.00 0.00 0.00 69 1008.7
20260506084205 14 19 14.5 29.0 0.00 0.00 0.00 70 1008.5
20260506083706 14 14 14.5 25.7 0.00 0.00 0.00 71 1008.5
20260506083206 14 64 14.5 24.1 0.00 0.00 0.00 73 1008.5
20260506082705 13 59 9.7 19.3 0.00 0.00 0.00 76 1008.4
20260506082205 13 3 9.7 20.9 0.00 0.00 0.00 78 1008.4
20260506081706 13 23 8.0 16.1 0.00 0.00 0.00 79 1008.4
20260506081205 13 32 12.9 19.3 0.00 0.00 0.00 77 1008.4
20260506080705 13 19 8.0 16.1 0.00 0.00 0.00 78 1008.4
20260506080205 12 16 9.7 20.9 0.00 0.00 0.00 79 1008.3
20260506073205 12 23 11.3 25.7 0.00 0.00 0.00 80 1008.4
20260506072705 12 7 12.9 20.9 0.00 0.00 0.00 81 1008.4
20260506072206 12 24 9.7 22.5 0.00 0.00 0.00 83 1008.4
20260506071205 11 4 4.8 16.1 0.00 0.00 0.00 83 1008.4
20260506070705 11 17 9.7 19.3 0.00 0.00 0.00 83 1008.4
20260506070205 11 7 11.3 19.3 0.00 0.00 0.00 83 1008.3
20260506062205 11 15 8.0 12.9 0.00 0.00 0.00 82 1008.2
20260506061705 11 0 9.7 14.5 0.00 0.00 0.00 83 1008.2
20260506061205 11 0 6.4 12.9 0.00 0.00 0.00 84 1008.2
20260506060706 11 4 9.7 19.3 0.00 0.00 0.00 84 1008.2
20260506060205 11 15 9.7 14.5 0.00 0.00 0.00 84 1008.2
20260506051205 10 19 8.0 16.1 0.00 0.00 0.00 85 1008.1
20260506050705 10 21 11.3 16.1 0.00 0.00 0.00 85 1008.2
20260506050205 10 3 4.8 11.3 0.00 0.00 0.00 84 1008.2
20260506044705 10 10 9.7 19.3 0.00 0.00 0.00 84 1008.2
20260506044205 10 12 9.7 19.3 0.00 0.00 0.00 84 1008.2
20260506043704 10 10 11.3 20.9 0.00 0.00 0.00 84 1008.2
20260506043205 10 16 11.3 20.9 0.00 0.00 0.00 84 1008.2
20260506041205 10 13 8.0 14.5 0.00 0.00 0.00 84 1008.3
20260506040705 10 22 12.9 19.3 0.00 0.00 0.00 84 1008.3
20260506040205 10 13 8.0 19.3 0.00 0.00 0.00 84 1008.4
20260506035705 10 25 9.7 16.1 0.00 0.00 0.00 85 1008.4
20260506035205 10 10 8.0 22.5 0.00 0.00 0.00 85 1008.3
20260506034704 10 17 14.5 19.3 0.00 0.00 0.00 85 1008.4
20260506034205 10 10 4.8 16.1 0.00 0.00 0.00 86 1008.4
20260506033705 10 12 8.0 12.9 0.00 0.00 0.00 86 1008.4
20260506032705 10 15 8.0 14.5 0.00 0.00 0.00 85 1008.5
20260506032205 10 17 4.8 8.0 0.00 0.00 0.00 85 1008.5
20260506031705 10 20 9.7 19.3 0.00 0.00 0.00 85 1008.5
20260506031205 10 14 4.8 12.9 0.00 0.00 0.00 85 1008.5
20260506030705 10 18 8.0 16.1 0.00 0.00 0.00 84 1008.6
20260506030205 10 11 6.4 14.5 0.00 0.00 0.00 84 1008.6
20260506025705 10 12 4.8 11.3 0.00 0.00 0.00 84 1008.7
20260506025204 10 12 8.0 14.5 0.00 0.00 0.00 84 1008.7
20260506024705 10 14 8.0 12.9 0.00 0.00 0.00 84 1008.7
20260506024204 10 10 4.8 12.9 0.00 0.00 0.00 84 1008.7
20260506023705 10 15 9.7 16.1 0.00 0.00 0.00 84 1008.7
20260506023205 10 6 8.0 14.5 0.00 0.00 0.00 84 1008.7
20260506022704 10 4 9.7 16.1 0.00 0.00 0.00 84 1008.8
20260506022204 10 13 9.7 14.5 0.00 0.00 0.00 84 1008.8
20260506021704 10 15 9.7 19.3 0.00 0.00 0.00 84 1008.7
20260506021204 10 10 6.4 14.5 0.00 0.00 0.00 84 1008.8
20260506020704 10 3 8.0 12.9 0.00 0.00 0.00 84 1008.8
20260506020205 10 17 8.0 14.5 0.00 0.00 0.00 84 1008.8
20260506015705 10 8 9.7 19.3 0.00 0.00 0.00 84 1008.8
20260506015205 10 353 9.7 19.3 0.00 0.00 0.00 84 1008.8
20260506014704 10 10 6.4 16.1 0.00 0.00 0.00 84 1008.8
20260506014205 10 356 6.4 16.1 0.00 0.00 0.00 84 1008.8
20260506013704 10 350 6.4 12.9 0.00 0.00 0.00 84 1008.9
20260506013205 10 8 8.0 12.9 0.00 0.00 0.00 83 1008.9
20260506012705 10 357 8.0 14.5 0.00 0.00 0.00 84 1008.9
20260506012204 10 356 6.4 14.5 0.00 0.00 0.00 83 1008.9
20260506011705 10 12 8.0 12.9 0.00 0.00 0.00 84 1008.9
20260506011205 10 8 8.0 14.5 0.00 0.00 0.00 83 1008.9
20260506010704 10 19 9.7 16.1 0.00 0.00 0.00 83 1009.0
20260506010204 10 9 8.0 14.5 0.00 0.00 0.00 84 1009.1
20260506005205 10 24 9.7 19.3 0.00 0.00 0.00 84 1009.1
20260506003704 10 18 8.0 12.9 0.00 0.00 0.00 84 1009.2
20260506003205 10 23 8.0 16.1 0.00 0.00 0.00 84 1009.3
20260506002704 10 13 8.0 19.3 0.00 0.00 0.00 84 1009.3
20260506001705 10 23 12.9 20.9 0.00 0.00 0.00 83 1009.4
20260506001205 10 17 9.7 19.3 0.00 0.00 0.00 84 1009.5
20260506000704 10 15 11.3 22.5 0.00 0.00 0.00 84 1009.5
20260506000205 10 0 9.7 19.3 0.00 0.00 0.00 84 1009.5
20260505235705 10 19 8.0 16.1 0.00 0.00 0.00 83 1009.5
20260505235204 10 10 8.0 14.5 0.00 0.00 0.00 83 1009.5
20260505234704 10 19 9.7 16.1 0.00 0.00 0.00 83 1009.5
20260505234204 10 14 8.0 14.5 0.00 0.00 0.00 83 1009.6
20260505233705 10 11 9.7 20.9 0.00 0.00 0.00 84 1009.6
20260505233205 9 2 6.4 16.1 0.00 0.00 0.00 83 1009.7
20260505232704 9 8 8.0 16.1 0.00 0.00 0.00 83 1009.7
20260505232205 9 14 8.0 16.1 0.00 0.00 0.00 83 1009.8
20260505231704 9 8 8.0 12.9 0.00 0.00 0.00 83 1009.8
20260505231204 9 11 4.8 12.9 0.00 0.00 0.00 83 1009.9
20260505230704 9 23 9.7 16.1 0.00 0.00 0.00 83 1009.9
20260505230204 9 19 8.0 11.3 0.00 0.00 0.00 83 1009.9
20260505225704 9 25 8.0 11.3 0.00 0.00 0.00 83 1009.9
20260505224705 9 0 9.7 14.5 0.00 0.00 0.00 82 1009.9
20260505224204 9 14 8.0 16.1 0.00 0.00 0.00 82 1009.9
20260505223704 9 28 6.4 14.5 0.00 0.00 0.00 81 1009.9
20260505223204 9 17 6.4 14.5 0.00 0.00 0.00 81 1010.0
20260505222706 10 21 8.0 16.1 0.00 0.00 0.00 81 1009.9
20260505222205 10 10 8.0 16.1 0.00 0.00 0.00 80 1010.0
20260505221704 10 11 9.7 16.1 0.00 0.00 0.00 80 1010.0
20260505221205 10 15 8.0 19.3 0.00 0.00 0.00 79 1010.1
20260505220204 10 11 8.0 16.1 0.00 0.00 0.00 78 1010.1
20260505215704 10 17 9.7 19.3 0.00 0.00 0.00 78 1010.1
20260505215204 10 17 11.3 19.3 0.00 0.00 0.00 78 1010.2
20260505214704 10 16 9.7 22.5 0.00 0.00 0.00 77 1010.1
20260505213204 10 15 9.7 14.5 0.00 0.00 0.00 77 1010.3
20260505212704 10 21 14.5 19.3 0.00 0.00 0.00 77 1010.3
20260505212204 10 15 9.7 16.1 0.00 0.00 0.00 78 1010.3
20260505211704 10 25 14.5 20.9 0.00 0.00 0.00 77 1010.3
20260505211203 10 17 8.0 19.3 0.00 0.00 0.00 77 1010.3
20260505210704 10 23 11.3 16.1 0.00 0.00 0.00 77 1010.3
20260505210204 10 8 6.4 16.1 0.00 0.00 0.00 77 1010.4
20260505205204 10 19 11.3 19.3 0.00 0.00 0.00 77 1010.4
20260505204703 10 15 8.0 20.9 0.00 0.00 0.00 76 1010.4
20260505204203 10 20 11.3 19.3 0.00 0.00 0.00 77 1010.5
20260505203704 10 5 9.7 19.3 0.00 0.00 0.00 77 1010.5
20260505203204 10 17 8.0 19.3 0.00 0.00 0.00 77 1010.5
20260505202704 10 17 9.7 14.5 0.00 0.00 0.00 78 1010.5
20260505202202 10 30 9.7 19.3 0.00 0.00 0.00 77 1010.4
20260505201702 10 17 9.7 19.3 0.00 0.00 0.00 77 1010.4
20260505201202 10 8 11.3 16.1 0.00 0.00 0.00 78 1010.4
20260505200702 10 19 11.3 19.3 0.00 0.00 0.00 78 1010.4
20260505200201 10 15 9.7 19.3 0.00 0.00 0.00 78 1010.4
20260505195202 10 13 4.8 8.0 0.00 0.00 0.00 80 1010.3
20260505194702 10 21 8.0 14.5 0.00 0.00 0.00 80 1010.3
20260505194203 10 19 8.0 14.5 0.00 0.00 0.00 80 1010.2
20260505193702 10 14 11.3 19.3 0.00 0.00 0.00 80 1010.1
20260505193202 11 13 6.4 11.3 0.00 0.00 0.00 80 1010.1
20260505192213 11 18 9.7 19.3 0.00 0.00 0.00 79 1010.0
20260505191714 11 10 9.7 19.3 0.00 0.00 0.00 79 1010.0
20260505191214 11 17 12.9 20.9 0.00 0.00 0.00 78 1009.8
20260505190713 11 11 11.3 20.9 0.00 0.00 0.00 78 1009.8
20260505190214 11 8 11.3 22.5 0.00 0.00 0.00 78 1009.7
20260505185714 11 14 9.7 24.1 0.00 0.00 0.00 77 1009.8
20260505185214 11 10 11.3 19.3 0.00 0.00 0.00 77 1009.8
20260505184714 11 16 14.5 20.9 0.00 0.00 0.00 77 1009.7
20260505184214 12 16 11.3 20.9 0.00 0.00 0.00 78 1009.7
20260505183714 12 16 8.0 12.9 0.00 0.00 0.00 78 1009.6
20260505183213 12 28 8.0 19.3 0.00 0.00 0.00 77 1009.6
20260505182714 12 13 9.7 19.3 0.00 0.00 0.00 77 1009.6
20260505182214 12 23 9.7 20.9 0.00 0.00 0.00 77 1009.6
20260505181214 12 28 9.7 16.1 0.00 0.00 0.00 77 1009.6
20260505180213 12 14 8.0 19.3 0.00 0.00 0.00 77 1009.7
20260505175213 12 15 9.7 24.1 0.00 0.00 0.00 76 1009.7
20260505174713 12 14 9.7 20.9 0.00 0.00 0.00 75 1009.6
20260505174214 12 34 9.7 20.9 0.00 0.00 0.00 75 1009.6
20260505173714 12 16 9.7 20.9 0.00 0.00 0.00 75 1009.6
20260505173213 12 15 9.7 22.5 0.00 0.00 0.00 75 1009.6
20260505172714 12 66 11.3 22.5 0.00 0.00 0.00 76 1009.7
20260505172215 13 20 8.0 19.3 0.00 0.00 0.00 75 1009.8
20260505171715 13 38 8.0 19.3 0.00 0.00 0.00 75 1009.7
20260505171213 13 57 9.7 19.3 0.00 0.00 0.00 75 1009.8
20260505170714 13 22 11.3 22.5 0.00 0.00 0.00 74 1009.8
20260505170213 13 17 11.3 22.5 0.00 0.00 0.00 73 1009.7
20260505165714 13 7 11.3 22.5 0.00 0.00 0.00 71 1009.8
20260505165214 13 25 8.0 19.3 0.00 0.00 0.00 72 1009.7
20260505163713 14 40 8.0 20.9 0.00 0.00 0.00 71 1009.8
20260505163213 14 8 8.0 16.1 0.00 0.00 0.00 70 1009.8
20260505162713 14 13 12.9 22.5 0.00 0.00 0.00 68 1009.9
20260505162214 14 44 9.7 19.3 0.00 0.00 0.00 69 1009.8
20260505161713 14 42 11.3 19.3 0.00 0.00 0.00 67 1009.8
20260505161213 15 21 11.3 19.3 0.00 0.00 0.00 67 1009.8
20260505160713 15 46 9.7 19.3 0.00 0.00 0.00 68 1009.8
20260505153213 14 34 8.0 16.1 0.00 0.00 0.00 68 1009.9
20260505152214 14 20 11.3 20.9 0.00 0.00 0.00 68 1009.9
20260505151714 14 12 9.7 19.3 0.00 0.00 0.00 67 1010.0
20260505151213 14 11 12.9 20.9 0.00 0.00 0.00 66 1010.0
20260505150713 14 16 12.9 20.9 0.00 0.00 0.00 66 1010.0
20260505150213 14 46 14.5 24.1 0.00 0.00 0.00 66 1010.0
20260505130212 14 84 9.7 22.5 0.00 0.00 0.00 70 1010.6
20260505124213 15 69 9.7 20.9 0.00 0.00 0.00 70 1010.6
20260505123713 15 63 9.7 20.9 0.00 0.00 0.00 71 1010.7
20260505123213 14 81 9.7 25.7 0.00 0.00 0.00 72 1010.7
20260505122713 14 77 9.7 25.7 0.00 0.00 0.00 72 1010.7
20260505122213 15 74 11.3 20.9 0.00 0.00 0.00 70 1010.6
20260505121713 15 47 8.0 20.9 0.00 0.00 0.00 71 1010.6
20260505121213 15 37 9.7 19.3 0.00 0.00 0.00 70 1010.6
20260505120213 15 70 11.3 19.3 0.00 0.00 0.00 70 1010.7
20260505115713 15 26 9.7 22.5 0.00 0.00 0.00 70 1010.7
20260505115213 15 74 9.7 22.5 0.00 0.00 0.00 69 1010.8
20260505114712 15 12 11.3 22.5 0.00 0.00 0.00 69 1010.8
20260505114213 15 60 9.7 22.5 0.00 0.00 0.00 70 1010.9
20260505113213 15 11 9.7 32.2 0.00 0.00 0.00 68 1011.0
20260505112712 16 41 9.7 19.3 0.00 0.00 0.00 69 1011.1
20260505112212 15 48 8.0 19.3 0.00 0.00 0.00 71 1011.1
20260505111213 15 51 11.3 22.5 0.00 0.00 0.00 70 1011.1
20260505110712 15 61 11.3 25.7 0.00 0.00 0.00 70 1011.1
20260505102212 15 45 9.7 19.3 0.00 0.00 0.00 71 1011.4
20260505101712 15 18 12.9 22.5 0.00 0.00 0.00 73 1011.5
20260505101213 14 9 9.7 22.5 0.00 0.00 0.00 72 1011.5
20260505100713 14 19 12.9 24.1 0.00 0.00 0.00 72 1011.5
20260505100213 14 17 11.3 19.3 0.00 0.00 0.00 75 1011.5
20260505095712 13 54 8.0 16.1 0.00 0.00 0.00 76 1011.5
20260505095213 13 14 9.7 19.3 0.00 0.00 0.00 76 1011.6
20260505094714 13 65 6.4 19.3 0.00 0.00 0.00 74 1011.5
20260505094212 13 71 9.7 29.0 0.00 0.00 0.00 73 1011.5
20260505093712 14 75 8.0 29.0 0.00 0.00 0.00 73 1011.5
20260505093212 14 65 11.3 25.7 0.00 0.00 0.00 75 1011.5
20260505092713 13 53 8.0 19.3 0.00 0.00 0.00 79 1011.6
20260505092212 12 29 9.7 19.3 0.00 0.00 0.00 79 1011.5